Weather History for Kansas City International, MO

Change the Weather History Date:

Wednesday, September 11, 2013

  Actual Average Record
Temperature  
Mean Temperature 81 °F 70 °F  
Max Temperature 95 °F 81 °F 102 °F (2000)
Min Temperature 66 °F 59 °F 44 °F (1940)
Degree Days  
Heating Degree Days 0 1  
Month to date heating degree days 0 6  
Since 1 July heating degree days 0 8  
Cooling Degree Days 16 6  
Month to date cooling degree days 148 85  
Year to date cooling degree days 1242 1258  
Growing Degree Days 30 (Base 50)    
Moisture  
Dew Point 62 °F    
Average Humidity 54    
Maximum Humidity 76    
Minimum Humidity 32    
Precipitation  
Precipitation 0.00 in 0.16 in 2.29 in (1925)
Month to date precipitation 0.81 1.70  
Year to date precipitation 23.48 29.10  
Snow  
Snow 0.00 in 0.00 in 0.00 in ()
Month to date snowfall 0.0 0.0  
Since 1 July snowfall 0.0 0.0  
Since 1 September snowfall 0.0 0.0  
Snow Depth 0.00 in    
Sea Level Pressure  
Sea Level Pressure 30.06 in    
Wind  
Wind Speed 7 mph (SSW)    
Max Wind Speed 15 mph    
Max Gust Speed 20 mph    
Visibility 10 miles    
Events      
T = Trace of Precipitation, MM = Missing Value Source: NWS Daily Summary

Daily Weather History Graph

Daily Weather History Graph

Search for Another Location

Airport:

Trip Planner

Search our weather history database for the weather conditions in past years. The results will help you decide how hot, cold, wet, or windy it might be!

Date:

Astronomy

Sep. 11, 2013 Rise Set
Actual Time 6:56 AM CDT 7:33 PM CDT
Civil Twilight 6:29 AM CDT 8:00 PM CDT
Nautical Twilight 5:57 AM CDT 8:32 PM CDT
Astronomical Twilight 5:25 AM CDT 9:04 PM CDT
Moon 1:23 PM CDT (9/11) 11:32 PM CDT (9/11)
Length of Visible Light 13h 30m
Length of Day
12h 36m
Waxing Crescent, 39% of the Moon is Illuminated
Sep 11
Waxing Crescent
Sep 12
First Quarter
Sep 19
Full
Sep 26
Last Quarter
Oct 4
New

Hourly Weather History & Observations

Time (CDT) Temp. Heat Index Dew Point Humidity Pressure Visibility Wind Dir Wind Speed Gust Speed Precip Events Conditions
12:53 AM 75.0 °F - 61.0 °F 62% 30.04 in 10.0 mi SSW 9.2 mph - N/A   Clear
1:53 AM 73.0 °F - 60.1 °F 64% 30.05 in 10.0 mi SSW 9.2 mph - N/A   Clear
2:53 AM 73.0 °F - 61.0 °F 66% 30.05 in 10.0 mi SSW 9.2 mph - N/A   Clear
3:53 AM 71.1 °F - 60.1 °F 68% 30.05 in 10.0 mi SSW 6.9 mph - N/A   Clear
4:53 AM 68.0 °F - 60.1 °F 76% 30.06 in 10.0 mi SSW 6.9 mph - N/A   Clear
5:53 AM 69.1 °F - 60.1 °F 73% 30.08 in 10.0 mi Calm Calm - N/A   Clear
6:53 AM 69.1 °F - 60.1 °F 73% 30.09 in 10.0 mi Calm Calm - N/A   Clear
7:53 AM 69.1 °F - 61.0 °F 75% 30.10 in 10.0 mi Calm Calm - N/A   Scattered Clouds
8:53 AM 75.9 °F - 62.1 °F 62% 30.10 in 10.0 mi Calm Calm - N/A   Scattered Clouds
9:53 AM 80.1 °F 81.5 °F 63.0 °F 56% 30.10 in 10.0 mi SW 6.9 mph - N/A   Scattered Clouds
10:53 AM 84.9 °F 85.9 °F 63.0 °F 48% 30.10 in 10.0 mi SSW 11.5 mph - N/A   Scattered Clouds
11:53 AM 89.1 °F 90.0 °F 63.0 °F 42% 30.09 in 10.0 mi WSW 12.7 mph - N/A   Scattered Clouds
12:53 PM 91.0 °F 91.9 °F 63.0 °F 39% 30.08 in 10.0 mi SW 13.8 mph 18.4 mph N/A   Mostly Cloudy
1:53 PM 93.0 °F 93.8 °F 62.1 °F 36% 30.06 in 10.0 mi SW 12.7 mph 19.6 mph N/A   Mostly Cloudy
2:53 PM 93.9 °F 94.0 °F 61.0 °F 33% 30.04 in 10.0 mi WSW 9.2 mph - N/A   Mostly Cloudy
3:53 PM 93.0 °F 92.7 °F 60.1 °F 33% 30.02 in 10.0 mi WSW 5.8 mph - N/A   Scattered Clouds
4:53 PM 93.0 °F 92.3 °F 59.0 °F 32% 30.01 in 10.0 mi Variable 6.9 mph - N/A   Scattered Clouds
5:53 PM 91.9 °F 90.8 °F 57.9 °F 32% 30.00 in 10.0 mi South 4.6 mph - N/A   Mostly Cloudy
6:53 PM 88.0 °F 89.6 °F 64.9 °F 46% 30.01 in 10.0 mi ENE 6.9 mph - N/A   Mostly Cloudy
7:53 PM 84.9 °F 87.1 °F 66.0 °F 53% 30.03 in 10.0 mi NNE 9.2 mph - N/A   Overcast
8:53 PM 82.0 °F 84.5 °F 66.9 °F 60% 30.05 in 10.0 mi North 9.2 mph - N/A   Overcast
9:53 PM 79.0 °F - 66.9 °F 66% 30.06 in 10.0 mi NNE 6.9 mph - N/A   Mostly Cloudy
10:53 PM 79.0 °F - 66.9 °F 66% 30.05 in 10.0 mi ENE 5.8 mph - N/A   Overcast
11:53 PM 79.0 °F - 66.0 °F 64% 30.03 in 10.0 mi East 3.5 mph - N/A   Overcast